COSMOS 2431 (GLONASS)

Satellite information

Favourite Embed

Satellite Type and Status

PAYLOADIN ORBIT

Key statistics

Satellite COSMOS 2431 (GLONASS) at a glance.

Uptime

6623

Days in orbit

Revolutions

≈ 2.1

Per day

Orbit

MEO

Medium Earth Orbit

Inclination

65.7

Latest

Satellite identification and parameters

Extended collection of information and parameters for COSMOS 2431 (GLONASS).

Object identification

Identified? True

Debris? False

Object name: COSMOS 2431 (GLONASS)

International designator: 2007-052C

Object number (NORAD): 32277

Object ID (CCSDS): 32277

Country: COMMONWEALTH OF INDEPENDENT STATES (CIS)

Current information (Y/N): Y

RCS size: LARGE

Orbital parameters

Period: 675.393 minutes

Inclination: 65.6971 deg

SMA: 25499.486 km

Apoapsis: 19159.583 km

Periapsis: 19083.118 km

RAAN: 322.1912 deg

Eccentricy: 0.00149933

Argument of periapsis: 181.6898 deg

Mean anomaly: 359.5014 deg

Mean motion: 2.13209049 rev/day

Mean motion (dot): -0.00000051 rev/day2

B* drag term: 0.0 1/REarth

Two-line elements (TLE)

Creation date: Dec. 11, 2025, 10:54 a.m.

Reference frame: TEME

Reference center: EARTH

Epoch: Dec. 10, 2025, 11:48 p.m. UTC

TLE line 0: 0 COSMOS 2431 (GLONASS)

TLE line 1: 1 32277U 07052C 25344.99211303 -.00000051 00000-0 00000-0 0 9998

TLE line 2: 2 32277 65.6971 322.1912 0014993 181.6898 359.5014 2.13209049141209

Live tracking on map

Real-time ground track for satellite COSMOS 2431 (GLONASS).

In-orbit conjunctions

There are no conjunctions computed for COSMOS 2431 (GLONASS), at the moment. Check back to stay up to date, as we update our databases every day.

Go to all conjunctions

Associated space launch

GLONASS navigation satellites

COSMOS 2431 (GLONASS) was lifted into orbit during the mission ‘Proton | Uragan-M 9 to 11’, on board a Proton space rocket.

The launch took place on Oct. 26, 2007, 7:35 a.m. from 81/24 (81P).

For more information about the launch, click the button.

Launch to space Proton | Uragan-M 9 to 11
Proton | Uragan-M 9 to 11

Agency: N/A

Status: Launch Successful

Launch date: Oct. 26, 2007, 7:35 a.m. UTC

Rocket: Proton

Launch pad: 81/24 (81P)

Location: Baikonur Cosmodrome, Republic of Kazakhstan

...

Latest news about this satellite

There are no fresh news available about this satellite. Check back as we update our databases every day.


Newsletter sign-up

Weekly statistics, charts and insights to help you stay on top of the space industry.